Location: Artist Point
(37.7122°N, 119.6749°W)
Time: 00:48:40
(UTC+00:00)

Daily predictions for brighter satellites

Satellite Brightness Start Highest point End
(mag) Time Altitude Azimuth Time Altitude Azimuth Time Altitude Azimuth
Cosmos 1452 Rocket 3.5 01:13:58 10° NNW 01:19:14 87° ENE 01:24:28 10° SSE
Cosmos 1674 Rocket 3.7 01:17:03 10° N 01:21:19 49° E 01:25:31 10° SSE
ATLAS CENTAUR R/B 1.8 01:21:09 10° S 01:24:12 30° ESE 01:27:19 10° NE
Cosmos 2173 Rocket 4.0 01:19:58 10° S 01:26:15 86° E 01:32:29 10° N
Cosmos 1844 4.1 01:21:39 10° SSW 01:27:25 70° WNW 01:33:11 10° NNE
SAR-Lupe-1 4.0 01:24:31 10° SSE 01:28:01 65° ENE 01:31:33 10° N
Meteor 1-11 4.2 01:29:25 10° N 01:35:11 77° E 01:40:49 10° SSE
Cosmos 921 Rocket 3.4 01:32:20 10° S 01:36:20 42° E 01:40:26 10° NNE
CZ-4C R/B 2.0 01:32:33 10° SW 01:36:29 61° NW 01:41:22 10° NNE
YAOGAN 1 3.8 01:35:18 10° ESE 01:38:20 19° ENE 01:41:23 10° NNE
Cosmos 1606 2.4 01:35:59 10° SSW 01:38:40 59° W 01:41:21 10° N
Cosmos 1025 Rocket 3.0 01:36:50 10° N 01:41:08 59° E 01:45:21 10° SSE
SJ-12 3.7 01:41:04 10° SSE 01:44:52 87° WSW 01:48:42 10° NNW
MOS 1 Rocket 3.3 01:41:37 10° SE 01:45:39 43° ENE 01:49:42 10° N
SAR-Lupe-4 4.4 01:43:46 10° S 01:47:16 54° W 01:50:48 10° NNW
ARIANE 6 FM1 Upper Stage 4.2 01:43:53 10° WSW 01:47:30 31° NW 01:51:05 10° NNE
IRS-P3 4.1 01:43:39 10° SSE 01:48:57 74° ENE 01:54:16 10° N
BREEZE-M DEB (TANK) 2.5 01:48:50 10° WSW 01:50:58 43° NNW 01:54:04 13° NE
CZ-2D R/B 3.8 01:50:30 10° SE 01:54:14 39° ENE 01:58:03 10° N
Tiangong -1.3 01:52:06 10° WNW 01:55:07 39° N 01:56:42 22° ENE
Cosmos 2016 Rocket 4.0 01:51:01 10° S 01:57:15 88° E 02:03:35 10° N
Cosmos 1782 Rocket 3.7 01:54:29 10° S 01:58:46 52° E 02:03:05 10° NNE
SPOT 1/Viking Rocket 3.6 01:56:57 10° SSE 02:01:55 52° ENE 02:06:56 10° N
Cosmos 1943 Rocket 3.9 02:00:32 10° SE 02:02:00 13° ESE 02:02:00 13° ESE
ARIANE 5 R/B 3.3 01:58:58 10° S 02:03:50 53° W 02:08:42 10° NNW
SL-4 R/B 3.8 02:05:00 10° N 02:06:43 13° NNE 02:06:56 13° NNE
IRAS Rocket 4.3 02:03:27 10° SSE 02:08:55 58° ENE 02:14:22 10° N
SKYMED 2 3.6 02:06:18 10° N 02:10:40 86° WNW 02:15:00 10° SSW
COSMO-SKYMED 1 2.3 02:06:44 10° NNE 02:10:50 65° E 02:14:55 10° S
Cosmos 909 Rocket 4.1 02:05:34 10° NNW 02:11:51 83° WSW 02:18:34 10° SSE
Cosmos 1140 Rocket 3.7 02:08:12 10° S 02:13:08 45° ESE 02:16:51 17° NE
Geosat 4.0 02:10:50 10° SE 02:15:44 59° ENE 02:20:39 10° NNW
SL-19 R/B 4.1 02:11:50 10° SSE 02:17:05 56° ENE 02:22:12 10° N
Cosmos 2061 Rocket 4.0 02:10:44 10° S 02:17:06 82° E 02:23:26 10° N
Cosmos 1300 Rocket 3.6 02:15:07 10° S 02:19:30 79° W 02:23:56 10° N
Delta 2 Rocket 3.3 02:16:49 10° WSW 02:20:45 60° S 02:21:55 39° ESE
Cosmos 1441 Rocket 2.7 02:19:20 10° N 02:22:41 85° ENE 02:26:01 10° S
Cosmos 1975 Rocket 3.2 02:20:49 10° N 02:24:57 44° E 02:29:06 10° SSE
Cosmos 1833 Rocket 3.3 02:20:22 10° N 02:25:27 33° ENE 02:26:06 32° ENE
Aureole 2 4.5 02:27:49 10° SSW 02:31:04 73° WNW 02:32:25 34° N
ATLAS 5 CENTAUR R/B 3.9 02:28:35 10° NNE 02:29:00 11° NNE 02:29:00 11° NNE
Resurs 01 Rocket 4.0 02:35:38 11° NNE 02:35:38 11° NNE 02:35:45 10° N
Cosmos 2084 Rocket 3.2 02:35:54 10° SSW 02:40:01 71° ESE 02:40:16 68° E
Spot 4 Rocket 4.3 02:38:44 10° S 02:43:47 69° WSW 02:48:53 10° NNW
Cosmos 1891 Rocket 4.4 02:38:05 10° S 02:44:24 69° E 02:50:49 10° NNE
PSLV R/B 3.9 02:46:01 10° S 02:50:03 60° W 02:54:05 10° NNW
Cosmos 407 Rocket 3.8 02:49:45 10° S 02:53:47 47° SSE 02:53:47 47° SSE
ATLAS CENTAUR R/B 3.5 02:57:05 10° W 02:59:26 17° NW 03:00:32 15° NNW
Resurs 1-3 4.4 02:57:35 10° S 03:01:44 49° W 03:05:55 10° NNW
NOAA 6 4.2 02:58:17 10° S 03:03:26 73° WSW 03:08:35 10° NNW
Cosmos 1464 Rocket 3.9 02:59:06 10° S 03:13:16 - NNE 03:05:00 62° ESE
NOSS 3-4 (A) 4.2 02:59:52 10° NW 03:07:00 69° WSW 03:15:17 10° SSE
NOSS 3-4 (C) 4.2 02:59:57 10° NW 03:07:05 70° WSW 03:15:20 10° SSE
Cosmos 2278 Rocket 3.2 03:04:04 10° S 03:07:06 32° S 03:07:06 32° S
YAOGAN 1 4.2 03:10:08 10° SSW 03:13:56 32° W 03:17:47 10° NNW
USA 281 3.0 03:26:26 85° ENE 03:26:28 85° ENE 03:33:04 10° NNW
SL-12 R/B(2) 4.4 03:33:34 10° SW 03:41:14 68° NW 03:44:51 39° NNE
Cosmos 1943 Rocket 3.6 03:40:51 10° SSW 03:43:35 29° SW 03:43:35 29° SW
Cosmos 1833 Rocket 4.5 04:04:19 10° NW 04:07:51 28° WNW 04:07:51 28° WNW
ACS3 Solar Sail 4.4 10:44:13 10° NNE 10:44:27 11° NNE 10:44:27 11° NNE
Cosmos 2219 Rocket 4.5 11:23:45 16° NNE 11:23:45 16° NNE 11:24:48 10° NNE
COSMOS 2428 4.1 11:29:57 33° ESE 11:30:26 33° ESE 11:35:28 10° NE
